,,,PA_Meas_PMT16A,,PR_Meas_QMR101_102,,RH_Meas_QMH101,,SR_Meas_QMS101,,TA_Meas_QMH101,,GenWind,,GenWind,
date,time,status,PA,status,PR,status,RH,status,SR,status,TA,status,DirAvg,status,SpdAvg,
2012-02-20, 00:00:04,VALID,1004.37,VALID,0,VALID,90.6464,VALID,0,VALID,25.0274,VALID,347,VALID,0.290625,
2012-02-20, 00:01:04,VALID,1004.37,VALID,0,VALID,90.9057,VALID,0,VALID,24.9866,VALID,347,VALID,0.535937,
2012-02-20, 00:02:04,VALID,1004.45,VALID,0,VALID,91.2185,VALID,0,VALID,24.9885,VALID,347,VALID,0.302344,
2012-02-20, 00:03:04,VALID,1004.47,VALID,0,VALID,91.4626,VALID,0,VALID,24.969,VALID,347,VALID,0.398438,
2012-02-20, 00:04:04,VALID,1004.53,VALID,0,VALID,91.455,VALID,0,VALID,24.9087,VALID,7,VALID,0.592969,
2012-02-20, 00:05:04,VALID,1004.5,VALID,0,VALID,91.7144,VALID,0,VALID,24.8911,VALID,7,VALID,0.259766,
2012-02-20, 00:06:04,VALID,1004.53,VALID,0,VALID,91.8212,VALID,0,VALID,24.9125,VALID,6,VALID,0.103516,
2012-02-20, 00:07:04,VALID,1004.53,VALID,0,VALID,91.9662,VALID,0,VALID,24.8716,VALID,6,VALID,0,
2012-02-20, 00:08:04,VALID,1004.53,VALID,0,VALID,92.0577,VALID,0,VALID,24.8716,VALID,5,VALID,0,
2012-02-20, 00:09:04,VALID,1004.55,VALID,0,VALID,92.0653,VALID,0.0815089,VALID,24.8308,VALID,6,VALID,0.382813,
2012-02-20, 00:10:04,VALID,1004.56,VALID,0,VALID,92.2027,VALID,0,VALID,24.8113,VALID,6,VALID,0.547656,
2012-02-20, 00:11:04,VALID,1004.52,VALID,0,VALID,92.4086,VALID,0.0815089,VALID,24.79,VALID,5,VALID,0.643359,
2012-02-20, 00:12:04,VALID,1004.52,VALID,0,VALID,92.5917,VALID,0,VALID,24.79,VALID,4,VALID,0.698438,
2012-02-20, 00:13:04,VALID,1004.46,VALID,0,VALID,92.5765,VALID,0.0815089,VALID,24.79,VALID,358,VALID,0.609766,
2012-02-20, 00:14:04,VALID,1004.46,VALID,0,VALID,92.6222,VALID,0.0815089,VALID,24.7919,VALID,353,VALID,0.741406,
2012-02-20, 00:15:04,VALID,1004.42,VALID,0,VALID,92.6833,VALID,0.0815089,VALID,24.7919,VALID,353,VALID,0.614062,
2012-02-20, 00:16:04,VALID,1004.41,VALID,0,VALID,92.7596,VALID,0.0815089,VALID,24.7529,VALID,352,VALID,0,
2012-02-20, 00:17:04,VALID,1004.4,VALID,0,VALID,92.7672,VALID,0.163018,VALID,24.751,VALID,348,VALID,0.619922,
2012-02-20, 00:18:04,VALID,1004.37,VALID,0,VALID,92.8282,VALID,0.0815089,VALID,24.7335,VALID,352,VALID,0.872266,
2012-02-20, 00:19:04,VALID,1004.35,VALID,0,VALID,92.7214,VALID,0.0815089,VALID,24.6945,VALID,348,VALID,1.03437,
2012-02-20, 00:20:04,VALID,1004.27,VALID,0,VALID,92.813,VALID,0.0815089,VALID,24.6537,VALID,348,VALID,0.588281,
2012-02-20, 00:21:04,VALID,1004.28,VALID,0,VALID,92.813,VALID,0.0815089,VALID,24.675,VALID,356,VALID,0.919141,
2012-02-20, 00:22:04,VALID,1004.26,VALID,0,VALID,92.6756,VALID,0.0815089,VALID,24.6148,VALID,10,VALID,0.964063,
2012-02-20, 00:23:04,VALID,1004.25,VALID,0,VALID,92.6604,VALID,0.0815089,VALID,24.5953,VALID,345,VALID,1.26016,
2012-02-20, 00:24:04,VALID,1004.24,VALID,0,VALID,92.6146,VALID,0,VALID,24.6361,VALID,4,VALID,0.957812,
2012-02-20, 00:25:04,VALID,1004.27,VALID,0,VALID,92.5765,VALID,0,VALID,24.6556,VALID,348,VALID,0.89375,
2012-02-20, 00:26:04,VALID,1004.23,VALID,0,VALID,92.5612,VALID,0,VALID,24.6361,VALID,349,VALID,0.410937,
2012-02-20, 00:27:04,VALID,1004.22,VALID,0,VALID,92.5612,VALID,0,VALID,24.638,VALID,349,VALID,0.727344,
2012-02-20, 00:28:04,VALID,1004.2,VALID,0,VALID,92.5383,VALID,0,VALID,24.6166,VALID,347,VALID,0.5125,
2012-02-20, 00:29:04,VALID,1004.2,VALID,0,VALID,92.6222,VALID,0,VALID,24.6166,VALID,24,VALID,1.45273,
2012-02-20, 00:30:04,VALID,1004.17,VALID,0,VALID,92.5765,VALID,0,VALID,24.6574,VALID,348,VALID,0.664063,
2012-02-20, 00:31:04,VALID,1004.15,VALID,0,VALID,92.4468,VALID,0,VALID,24.638,VALID,3,VALID,0.526953,
2012-02-20, 00:32:04,VALID,1004.1,VALID,0,VALID,92.4468,VALID,0,VALID,24.6166,VALID,20,VALID,0,
2012-02-20, 00:33:04,VALID,1004.04,VALID,0,VALID,92.4925,VALID,0,VALID,24.638,VALID,20,VALID,0,
2012-02-20, 00:34:04,VALID,1004,VALID,0,VALID,92.4849,VALID,0,VALID,24.6166,VALID,20,VALID,0,
2012-02-20, 00:35:04,VALID,1003.97,VALID,0,VALID,92.5688,VALID,0,VALID,24.6185,VALID,20,VALID,0.205469,
2012-02-20, 00:36:04,VALID,1003.94,VALID,0,VALID,92.5765,VALID,0,VALID,24.638,VALID,20,VALID,0,
2012-02-20, 00:37:04,VALID,1003.91,VALID,0,VALID,92.6375,VALID,0,VALID,24.599,VALID,20,VALID,0,
2012-02-20, 00:38:04,VALID,1003.92,VALID,0,VALID,92.668,VALID,0,VALID,24.5564,VALID,20,VALID,0.307813,
2012-02-20, 00:39:04,VALID,1003.91,VALID,0,VALID,92.6909,VALID,0,VALID,24.5601,VALID,20,VALID,0,
2012-02-20, 00:40:04,VALID,1003.94,VALID,0,VALID,92.7138,VALID,0,VALID,24.5193,VALID,20,VALID,0.146875,
2012-02-20, 00:41:04,VALID,1003.91,VALID,0,VALID,92.7824,VALID,0,VALID,24.5017,VALID,20,VALID,0.291016,
2012-02-20, 00:42:04,VALID,1003.89,VALID,0,VALID,92.8969,VALID,0,VALID,24.5017,VALID,57,VALID,0.49375,
2012-02-20, 00:43:04,VALID,1003.92,VALID,0,VALID,93.0113,VALID,0.0815089,VALID,24.4609,VALID,77,VALID,0.547266,
2012-02-20, 00:44:04,VALID,1003.9,VALID,0,VALID,93.0876,VALID,0,VALID,24.4201,VALID,87,VALID,0.132813,
2012-02-20, 00:45:04,VALID,1003.9,VALID,0,VALID,93.141,VALID,0,VALID,24.4025,VALID,85,VALID,0.291406,
2012-02-20, 00:46:04,VALID,1003.84,VALID,0,VALID,93.2249,VALID,0,VALID,24.4025,VALID,85,VALID,0.0546875,
2012-02-20, 00:47:04,VALID,1003.85,VALID,0,VALID,93.2707,VALID,0,VALID,24.383,VALID,85,VALID,0.0820313,
2012-02-20, 00:48:04,VALID,1003.85,VALID,0,VALID,93.3394,VALID,0,VALID,24.383,VALID,85,VALID,0.00078125,
2012-02-20, 00:49:04,VALID,1003.79,VALID,0,VALID,93.4462,VALID,0,VALID,24.4025,VALID,33,VALID,0.573828,
2012-02-20, 00:50:04,VALID,1003.74,VALID,0,VALID,93.5453,VALID,0,VALID,24.422,VALID,19,VALID,0.875,
2012-02-20, 00:51:04,VALID,1003.73,VALID,0,VALID,93.614,VALID,0,VALID,24.4006,VALID,7,VALID,0.966797,
2012-02-20, 00:52:04,VALID,1003.7,VALID,0,VALID,93.7055,VALID,0,VALID,24.4006,VALID,351,VALID,1.03281,
2012-02-20, 00:53:04,VALID,1003.76,VALID,0,VALID,93.7589,VALID,0.0815089,VALID,24.4998,VALID,358,VALID,1.1207,
2012-02-20, 00:54:04,VALID,1003.83,VALID,0,VALID,93.6674,VALID,0,VALID,24.5582,VALID,6,VALID,1.27109,
2012-02-20, 00:55:04,VALID,1003.94,VALID,0,VALID,93.4385,VALID,0,VALID,24.6361,VALID,360,VALID,1.11055,
2012-02-20, 00:56:04,VALID,1004,VALID,0,VALID,93.1334,VALID,0,VALID,24.714,VALID,357,VALID,1.2625,
2012-02-20, 00:57:04,VALID,1004.04,VALID,0,VALID,92.401,VALID,0,VALID,24.7919,VALID,356,VALID,1.29766,
2012-02-20, 00:58:04,VALID,1004.02,VALID,0,VALID,91.7678,VALID,0.0815089,VALID,24.8892,VALID,346,VALID,1.51055,
2012-02-20, 00:59:04,VALID,1004.06,VALID,0,VALID,91.2109,VALID,0,VALID,24.9671,VALID,27,VALID,0.728906,
2012-02-20, 01:00:04,VALID,1004.03,VALID,0,VALID,90.2344,VALID,0,VALID,24.9476,VALID,334,VALID,2.19766,
2012-02-20, 01:01:04,VALID,1004.03,VALID,0,VALID,89.8377,VALID,0.0815089,VALID,24.9671,VALID,354,VALID,2.51758,
2012-02-20, 01:02:04,VALID,1004,VALID,0,VALID,89.4334,VALID,0.0815089,VALID,24.9476,VALID,12,VALID,2.59609,
2012-02-20, 01:03:04,VALID,1003.97,VALID,0,VALID,89.4028,VALID,0,VALID,24.9282,VALID,352,VALID,1.96758,
2012-02-20, 01:04:04,VALID,1003.94,VALID,0.5,VALID,89.6927,VALID,0,VALID,24.9282,VALID,5,VALID,1.83086,
2012-02-20, 01:05:04,VALID,1003.91,VALID,0,VALID,89.6241,VALID,0,VALID,24.8697,VALID,352,VALID,2.05742,
2012-02-20, 01:06:04,VALID,1003.89,VALID,0,VALID,89.502,VALID,0,VALID,24.8503,VALID,354,VALID,2.02383,
2012-02-20, 01:07:04,VALID,1003.88,VALID,0,VALID,90.0742,VALID,0,VALID,24.8503,VALID,360,VALID,1.69922,
2012-02-20, 01:08:04,VALID,1003.9,VALID,0,VALID,89.8835,VALID,0,VALID,24.7919,VALID,357,VALID,1.93438,
2012-02-20, 01:09:04,VALID,1003.83,VALID,0,VALID,89.8987,VALID,0,VALID,24.7724,VALID,7,VALID,1.61953,
2012-02-20, 01:10:04,VALID,1003.8,VALID,0,VALID,90.6006,VALID,0,VALID,24.7529,VALID,17,VALID,1.73008,
2012-02-20, 01:11:04,VALID,1003.73,VALID,0.5,VALID,90.9286,VALID,0,VALID,24.6361,VALID,358,VALID,1.33672,
2012-02-20, 01:12:04,VALID,1003.69,VALID,0,VALID,91.3253,VALID,0,VALID,24.5582,VALID,3,VALID,2.16836,
2012-02-20, 01:13:04,VALID,1003.62,VALID,0,VALID,91.661,VALID,0,VALID,24.5017,VALID,353,VALID,1.26328,
2012-02-20, 01:14:04,VALID,1003.56,VALID,0,VALID,91.5389,VALID,0,VALID,24.422,VALID,352,VALID,2.05312,
2012-02-20, 01:15:04,VALID,1003.52,VALID,0,VALID,91.5161,VALID,0,VALID,24.3636,VALID,346,VALID,1.72617,
2012-02-20, 01:16:04,VALID,1003.51,VALID,0,VALID,91.4626,VALID,0,VALID,24.3441,VALID,2,VALID,1.50195,
2012-02-20, 01:17:04,VALID,1003.53,VALID,0,VALID,91.0431,VALID,0,VALID,24.3246,VALID,354,VALID,2.73477,
2012-02-20, 01:18:04,VALID,1003.52,VALID,0,VALID,91.3024,VALID,0,VALID,24.3246,VALID,11,VALID,1.97891,
2012-02-20, 01:19:04,VALID,1003.49,VALID,0,VALID,91.2796,VALID,0,VALID,24.3052,VALID,345,VALID,1.72227,
2012-02-20, 01:20:04,VALID,1003.51,VALID,0,VALID,91.6305,VALID,0,VALID,24.2857,VALID,9,VALID,1.00156,
2012-02-20, 01:21:04,VALID,1003.53,VALID,0,VALID,91.8594,VALID,0.0815089,VALID,24.2857,VALID,359,VALID,1.33789,
2012-02-20, 01:22:04,VALID,1003.52,VALID,0,VALID,92.0119,VALID,0,VALID,24.2681,VALID,359,VALID,1.25508,
2012-02-20, 01:23:04,VALID,1003.53,VALID,0,VALID,92.1264,VALID,0,VALID,24.2291,VALID,4,VALID,1.075,
2012-02-20, 01:24:04,VALID,1003.52,VALID,0.5,VALID,92.1035,VALID,0,VALID,24.1884,VALID,350,VALID,1.3293,
2012-02-20, 01:25:04,VALID,1003.5,VALID,0,VALID,92.0577,VALID,0.0815089,VALID,24.1689,VALID,353,VALID,1.21992,
2012-02-20, 01:26:04,VALID,1003.44,VALID,0,VALID,92.0196,VALID,0,VALID,24.1281,VALID,356,VALID,1.02461,
2012-02-20, 01:27:04,VALID,1003.43,VALID,0,VALID,92.0043,VALID,0,VALID,24.1281,VALID,348,VALID,0.948828,
2012-02-20, 01:28:04,VALID,1003.38,VALID,0,VALID,92.0272,VALID,0,VALID,24.1105,VALID,1,VALID,1.29531,
2012-02-20, 01:29:04,VALID,1003.37,VALID,0,VALID,92.195,VALID,0,VALID,24.13,VALID,356,VALID,0.822656,
2012-02-20, 01:30:04,VALID,1003.36,VALID,0,VALID,92.2561,VALID,0,VALID,24.1123,VALID,350,VALID,1.12773,
2012-02-20, 01:31:04,VALID,1003.38,VALID,0,VALID,92.3781,VALID,0,VALID,24.091,VALID,347,VALID,1.24883,
2012-02-20, 01:32:04,VALID,1003.4,VALID,0,VALID,92.4468,VALID,0,VALID,24.0716,VALID,353,VALID,0.907031,
2012-02-20, 01:33:04,VALID,1003.42,VALID,0,VALID,92.5688,VALID,0,VALID,24.091,VALID,351,VALID,0.844922,
2012-02-20, 01:34:04,VALID,1003.45,VALID,0,VALID,92.6528,VALID,0,VALID,24.0716,VALID,358,VALID,0.721484,
2012-02-20, 01:35:04,VALID,1003.5,VALID,0,VALID,92.668,VALID,0,VALID,24.0929,VALID,353,VALID,0.730469,
2012-02-20, 01:36:04,VALID,1003.51,VALID,0,VALID,92.7138,VALID,0,VALID,24.0716,VALID,354,VALID,0.788672,
2012-02-20, 01:37:04,VALID,1003.58,VALID,0,VALID,92.8969,VALID,0,VALID,24.091,VALID,19,VALID,0.958594,
2012-02-20, 01:38:04,VALID,1003.55,VALID,0,VALID,92.874,VALID,0,VALID,24.091,VALID,359,VALID,0.979688,
2012-02-20, 01:39:04,VALID,1003.58,VALID,0,VALID,92.935,VALID,0,VALID,24.1105,VALID,6,VALID,1.14844,
2012-02-20, 01:40:04,VALID,1003.52,VALID,0,VALID,92.9808,VALID,0,VALID,24.13,VALID,16,VALID,0.860156,
2012-02-20, 01:41:04,VALID,1003.52,VALID,0,VALID,93.0418,VALID,0,VALID,24.1494,VALID,4,VALID,1.17148,
2012-02-20, 01:42:04,VALID,1003.5,VALID,0,VALID,93.0952,VALID,0,VALID,24.1689,VALID,16,VALID,1.10977,
2012-02-20, 01:43:04,VALID,1003.53,VALID,0,VALID,93.1105,VALID,0,VALID,24.1884,VALID,19,VALID,1.24414,
2012-02-20, 01:44:04,VALID,1003.53,VALID,0,VALID,93.1181,VALID,0,VALID,24.2857,VALID,23,VALID,1.39141,
2012-02-20, 01:45:04,VALID,1003.55,VALID,0,VALID,93.1029,VALID,0,VALID,24.3265,VALID,15,VALID,1.08633,
2012-02-20, 01:46:04,VALID,1003.6,VALID,0,VALID,92.9503,VALID,0,VALID,24.3636,VALID,355,VALID,1.27227,
2012-02-20, 01:47:04,VALID,1003.58,VALID,0,VALID,92.7519,VALID,0,VALID,24.422,VALID,355,VALID,1.31289,
2012-02-20, 01:48:04,VALID,1003.61,VALID,0,VALID,92.5688,VALID,0,VALID,24.4414,VALID,359,VALID,0.955078,
2012-02-20, 01:49:04,VALID,1003.61,VALID,0,VALID,92.5841,VALID,0,VALID,24.4822,VALID,1,VALID,0.478906,
2012-02-20, 01:50:04,VALID,1003.6,VALID,0,VALID,92.6299,VALID,0,VALID,24.4609,VALID,25,VALID,0.360547,
2012-02-20, 01:51:04,VALID,1003.59,VALID,0,VALID,92.7824,VALID,0,VALID,24.4804,VALID,10,VALID,1.3207,
2012-02-20, 01:52:04,VALID,1003.61,VALID,0,VALID,92.7443,VALID,0,VALID,24.5193,VALID,2,VALID,0.618359,
2012-02-20, 01:53:04,VALID,1003.59,VALID,0,VALID,92.5688,VALID,0,VALID,24.5388,VALID,1,VALID,0.478906,
2012-02-20, 01:54:04,VALID,1003.56,VALID,0,VALID,92.546,VALID,0,VALID,24.5388,VALID,355,VALID,0.157422,
2012-02-20, 01:55:04,VALID,1003.6,VALID,0,VALID,92.607,VALID,0,VALID,24.5564,VALID,26,VALID,0.733594,
2012-02-20, 01:56:04,VALID,1003.63,VALID,0,VALID,92.6756,VALID,0,VALID,24.5972,VALID,6,VALID,1.46758,
2012-02-20, 01:57:04,VALID,1003.62,VALID,0,VALID,92.3323,VALID,0,VALID,24.6537,VALID,302,VALID,1.32617,
2012-02-20, 01:58:04,VALID,1003.62,VALID,0,VALID,92.1798,VALID,0,VALID,24.7529,VALID,345,VALID,0.355469,
2012-02-20, 01:59:04,VALID,1003.63,VALID,0,VALID,92.0196,VALID,0,VALID,24.8132,VALID,80,VALID,0.144922,
2012-02-20, 02:00:04,VALID,1003.62,VALID,0,VALID,91.8517,VALID,0,VALID,24.8132,VALID,151,VALID,0.260156,
2012-02-20, 02:01:04,VALID,1003.65,VALID,0,VALID,91.4398,VALID,0,VALID,24.7919,VALID,192,VALID,0.744141,
2012-02-20, 02:02:04,VALID,1003.61,VALID,0,VALID,91.1956,VALID,0,VALID,24.7121,VALID,220,VALID,0.567578,
2012-02-20, 02:03:04,VALID,1003.6,VALID,0,VALID,90.9973,VALID,0,VALID,24.6361,VALID,233,VALID,0.538281,
2012-02-20, 02:04:04,VALID,1003.58,VALID,0,VALID,91.1193,VALID,0,VALID,24.5582,VALID,233,VALID,0.512891,
2012-02-20, 02:05:04,VALID,1003.61,VALID,0,VALID,91.3101,VALID,0,VALID,24.4998,VALID,232,VALID,0.291016,
2012-02-20, 02:06:04,VALID,1003.61,VALID,0,VALID,91.4932,VALID,0,VALID,24.4414,VALID,229,VALID,0.278516,
2012-02-20, 02:07:04,VALID,1003.64,VALID,0,VALID,91.661,VALID,0,VALID,24.3636,VALID,213,VALID,0.312109,
2012-02-20, 02:08:04,VALID,1003.64,VALID,0,VALID,91.8594,VALID,0,VALID,24.3246,VALID,206,VALID,0,
2012-02-20, 02:09:04,VALID,1003.63,VALID,0,VALID,92.0272,VALID,0,VALID,24.3052,VALID,206,VALID,0,
2012-02-20, 02:10:04,VALID,1003.6,VALID,0,VALID,92.1874,VALID,0,VALID,24.307,VALID,206,VALID,0,
2012-02-20, 02:11:04,VALID,1003.57,VALID,0,VALID,92.2789,VALID,0,VALID,24.2875,VALID,206,VALID,0,
2012-02-20, 02:12:04,VALID,1003.56,VALID,0,VALID,92.3629,VALID,0,VALID,24.2875,VALID,206,VALID,0,
2012-02-20, 02:13:04,VALID,1003.53,VALID,0,VALID,92.4315,VALID,0,VALID,24.2468,VALID,206,VALID,0,
2012-02-20, 02:14:04,VALID,1003.55,VALID,0,VALID,92.5002,VALID,0,VALID,24.2468,VALID,206,VALID,0,
2012-02-20, 02:15:04,VALID,1003.55,VALID,0,VALID,92.546,VALID,0,VALID,24.2468,VALID,206,VALID,0,
2012-02-20, 02:16:04,VALID,1003.53,VALID,0,VALID,92.5536,VALID,0,VALID,24.2468,VALID,206,VALID,0,
2012-02-20, 02:17:04,VALID,1003.49,VALID,0,VALID,92.7443,VALID,0,VALID,24.2468,VALID,206,VALID,0,
2012-02-20, 02:18:04,VALID,1003.5,VALID,0,VALID,92.8435,VALID,0,VALID,24.2273,VALID,206,VALID,0,
2012-02-20, 02:19:04,VALID,1003.5,VALID,0,VALID,92.9732,VALID,0,VALID,24.2875,VALID,206,VALID,0,
2012-02-20, 02:20:04,VALID,1003.49,VALID,0,VALID,92.8587,VALID,0,VALID,24.2273,VALID,339,VALID,0.630859,
2012-02-20, 02:21:04,VALID,1003.48,VALID,0,VALID,92.9274,VALID,0,VALID,24.2078,VALID,340,VALID,0.548437,
2012-02-20, 02:22:04,VALID,1003.43,VALID,0,VALID,93.0037,VALID,0,VALID,24.2097,VALID,343,VALID,0.382813,
2012-02-20, 02:23:04,VALID,1003.38,VALID,0,VALID,93.1944,VALID,0,VALID,24.1884,VALID,303,VALID,0.711719,
2012-02-20, 02:24:04,VALID,1003.37,VALID,0,VALID,93.3699,VALID,0,VALID,24.1884,VALID,284,VALID,0.183203,
2012-02-20, 02:25:04,VALID,1003.34,VALID,0,VALID,93.4309,VALID,0,VALID,24.2273,VALID,284,VALID,0,
2012-02-20, 02:26:04,VALID,1003.36,VALID,0,VALID,93.5072,VALID,0,VALID,24.2468,VALID,284,VALID,0,
2012-02-20, 02:27:04,VALID,1003.41,VALID,0,VALID,93.553,VALID,0,VALID,24.2662,VALID,284,VALID,0.00507812,
2012-02-20, 02:28:04,VALID,1003.47,VALID,0,VALID,93.5148,VALID,0,VALID,24.2662,VALID,297,VALID,0.530078,
2012-02-20, 02:29:04,VALID,1003.47,VALID,0,VALID,93.4843,VALID,0,VALID,24.2681,VALID,342,VALID,0.605469,
2012-02-20, 02:30:04,VALID,1003.48,VALID,0,VALID,93.469,VALID,0,VALID,24.2681,VALID,342,VALID,0.391406,
2012-02-20, 02:31:04,VALID,1003.45,VALID,0,VALID,93.4767,VALID,0,VALID,24.2273,VALID,342,VALID,0.377734,
2012-02-20, 02:32:04,VALID,1003.42,VALID,0,VALID,93.5377,VALID,0,VALID,24.2273,VALID,342,VALID,0,
2012-02-20, 02:33:04,VALID,1003.41,VALID,0,VALID,93.5911,VALID,0,VALID,24.2273,VALID,342,VALID,0.421875,
2012-02-20, 02:34:04,VALID,1003.39,VALID,0,VALID,93.6064,VALID,0,VALID,24.2273,VALID,342,VALID,0.587891,
2012-02-20, 02:35:04,VALID,1003.44,VALID,0,VALID,93.6826,VALID,0,VALID,24.2468,VALID,342,VALID,0.565234,
2012-02-20, 02:36:04,VALID,1003.43,VALID,0,VALID,93.6826,VALID,0.0815089,VALID,24.206,VALID,5,VALID,0.739844,
2012-02-20, 02:37:04,VALID,1003.39,VALID,0,VALID,93.6674,VALID,0,VALID,24.2078,VALID,5,VALID,0.678125,
2012-02-20, 02:38:04,VALID,1003.36,VALID,0,VALID,93.6674,VALID,0,VALID,24.2097,VALID,5,VALID,0.455469,
2012-02-20, 02:39:04,VALID,1003.37,VALID,0,VALID,93.6826,VALID,0,VALID,24.1689,VALID,5,VALID,0.25,
2012-02-20, 02:40:04,VALID,1003.36,VALID,0,VALID,93.7437,VALID,0,VALID,24.1902,VALID,5,VALID,0.00742187,
2012-02-20, 02:41:04,VALID,1003.44,VALID,0,VALID,93.7361,VALID,0.0815089,VALID,24.1689,VALID,6,VALID,0.116016,
2012-02-20, 02:42:04,VALID,1003.49,VALID,0,VALID,93.7971,VALID,0.0815089,VALID,24.1689,VALID,5,VALID,0.00429688,
2012-02-20, 02:43:04,VALID,1003.54,VALID,0,VALID,93.8657,VALID,0,VALID,24.1494,VALID,6,VALID,0.254297,
2012-02-20, 02:44:04,VALID,1003.56,VALID,0,VALID,93.9039,VALID,0,VALID,24.1884,VALID,6,VALID,0.196484,
2012-02-20, 02:45:04,VALID,1003.59,VALID,0,VALID,93.942,VALID,0,VALID,24.1884,VALID,5,VALID,0.0878906,
2012-02-20, 02:46:04,VALID,1003.59,VALID,0,VALID,93.9268,VALID,0.0815089,VALID,24.1884,VALID,6,VALID,0.0292969,
2012-02-20, 02:47:04,VALID,1003.6,VALID,0,VALID,93.9878,VALID,0,VALID,24.2291,VALID,5,VALID,0,
2012-02-20, 02:48:04,VALID,1003.59,VALID,0,VALID,94.0336,VALID,0,VALID,24.2078,VALID,5,VALID,0,
2012-02-20, 02:49:04,VALID,1003.61,VALID,0,VALID,94.0794,VALID,0,VALID,24.2273,VALID,5,VALID,0.25,
2012-02-20, 02:50:04,VALID,1003.6,VALID,0,VALID,94.1022,VALID,0.0815089,VALID,24.2662,VALID,5,VALID,0.0746094,
2012-02-20, 02:51:04,VALID,1003.6,VALID,0,VALID,94.1251,VALID,0,VALID,24.307,VALID,6,VALID,0,
2012-02-20, 02:52:04,VALID,1003.59,VALID,0,VALID,94.1556,VALID,0,VALID,24.2857,VALID,5,VALID,0,
2012-02-20, 02:53:04,VALID,1003.57,VALID,0,VALID,94.1556,VALID,0.0815089,VALID,24.3052,VALID,5,VALID,0,
2012-02-20, 02:54:04,VALID,1003.56,VALID,0,VALID,94.1022,VALID,0,VALID,24.3052,VALID,5,VALID,0,
2012-02-20, 02:55:04,VALID,1003.56,VALID,0,VALID,94.0412,VALID,0,VALID,24.2857,VALID,5,VALID,0,
2012-02-20, 02:56:04,VALID,1003.51,VALID,0,VALID,94.0183,VALID,0,VALID,24.2857,VALID,6,VALID,0.397266,
2012-02-20, 02:57:04,VALID,1003.53,VALID,0,VALID,94.0565,VALID,0,VALID,24.2644,VALID,4,VALID,0.228125,
2012-02-20, 02:58:04,VALID,1003.54,VALID,0,VALID,94.1175,VALID,0,VALID,24.2857,VALID,4,VALID,0.0761719,
2012-02-20, 02:59:04,VALID,1003.51,VALID,0,VALID,94.1404,VALID,0.0815089,VALID,24.3052,VALID,4,VALID,0,
2012-02-20, 03:00:04,VALID,1003.51,VALID,0,VALID,94.1556,VALID,0.0815089,VALID,24.3033,VALID,4,VALID,0.0585938,
2012-02-20, 03:01:04,VALID,1003.49,VALID,0,VALID,94.1404,VALID,0,VALID,24.3246,VALID,4,VALID,0.240625,
2012-02-20, 03:02:04,VALID,1003.49,VALID,0,VALID,94.1556,VALID,0,VALID,24.3246,VALID,4,VALID,0,
2012-02-20, 03:03:04,VALID,1003.49,VALID,0,VALID,94.148,VALID,0,VALID,24.3441,VALID,4,VALID,0.3125,
2012-02-20, 03:04:04,VALID,1003.48,VALID,0,VALID,94.148,VALID,0.0815089,VALID,24.3636,VALID,2,VALID,0.583984,
2012-02-20, 03:05:04,VALID,1003.5,VALID,0,VALID,94.148,VALID,0.0815089,VALID,24.3441,VALID,358,VALID,0.365234,
2012-02-20, 03:06:04,VALID,1003.51,VALID,0,VALID,94.1328,VALID,0.0815089,VALID,24.3636,VALID,358,VALID,0.131641,
2012-02-20, 03:07:04,VALID,1003.52,VALID,0,VALID,94.1022,VALID,0.0815089,VALID,24.383,VALID,358,VALID,0.415625,
2012-02-20, 03:08:04,VALID,1003.5,VALID,0,VALID,94.087,VALID,0.0815089,VALID,24.3636,VALID,358,VALID,0.355859,
2012-02-20, 03:09:04,VALID,1003.49,VALID,0,VALID,94.0717,VALID,0,VALID,24.3459,VALID,358,VALID,0.395703,
2012-02-20, 03:10:04,VALID,1003.47,VALID,0,VALID,94.0488,VALID,0,VALID,24.3459,VALID,358,VALID,0.439063,
2012-02-20, 03:11:04,VALID,1003.48,VALID,0,VALID,94.0946,VALID,0,VALID,24.3265,VALID,358,VALID,0.58125,
2012-02-20, 03:12:04,VALID,1003.48,VALID,0,VALID,94.0641,VALID,0,VALID,24.3265,VALID,358,VALID,0.521484,
2012-02-20, 03:13:04,VALID,1003.47,VALID,0,VALID,94.0565,VALID,0,VALID,24.307,VALID,358,VALID,0.419141,
2012-02-20, 03:14:04,VALID,1003.39,VALID,0,VALID,94.0565,VALID,0,VALID,24.3088,VALID,358,VALID,0.321094,
2012-02-20, 03:15:04,VALID,1003.37,VALID,0,VALID,94.0717,VALID,0,VALID,24.2875,VALID,358,VALID,0.315234,
2012-02-20, 03:16:04,VALID,1003.32,VALID,0,VALID,94.148,VALID,0,VALID,24.2875,VALID,358,VALID,0.557031,
2012-02-20, 03:17:04,VALID,1003.3,VALID,0,VALID,94.1862,VALID,0,VALID,24.2875,VALID,358,VALID,0.498828,
2012-02-20, 03:18:04,VALID,1003.28,VALID,0,VALID,94.2014,VALID,0,VALID,24.2681,VALID,358,VALID,0.164844,
2012-02-20, 03:19:04,VALID,1003.29,VALID,0,VALID,94.2167,VALID,0,VALID,24.2875,VALID,358,VALID,0,
2012-02-20, 03:20:04,VALID,1003.33,VALID,0,VALID,94.2319,VALID,0,VALID,24.2875,VALID,358,VALID,0,
2012-02-20, 03:21:04,VALID,1003.31,VALID,0,VALID,94.2243,VALID,0,VALID,24.2662,VALID,358,VALID,0,
2012-02-20, 03:22:04,VALID,1003.35,VALID,0,VALID,94.3006,VALID,0,VALID,24.307,VALID,358,VALID,0,
2012-02-20, 03:23:04,VALID,1003.32,VALID,0,VALID,94.3769,VALID,0,VALID,24.3052,VALID,358,VALID,0,
2012-02-20, 03:24:04,VALID,1003.35,VALID,0,VALID,94.3769,VALID,0.0815089,VALID,24.3441,VALID,358,VALID,0,
2012-02-20, 03:25:04,VALID,1003.35,VALID,0,VALID,94.3769,VALID,0,VALID,24.3636,VALID,358,VALID,0,
2012-02-20, 03:26:04,VALID,1003.37,VALID,0,VALID,94.3769,VALID,0.0815089,VALID,24.383,VALID,358,VALID,0,
2012-02-20, 03:27:04,VALID,1003.4,VALID,0,VALID,94.354,VALID,0.0815089,VALID,24.383,VALID,358,VALID,0,
2012-02-20, 03:28:04,VALID,1003.42,VALID,0,VALID,94.3464,VALID,0.0815089,VALID,24.383,VALID,358,VALID,0,
2012-02-20, 03:29:04,VALID,1003.45,VALID,0,VALID,94.3082,VALID,0.0815089,VALID,24.3636,VALID,358,VALID,0.283594,
2012-02-20, 03:30:04,VALID,1003.45,VALID,0,VALID,94.293,VALID,0.0815089,VALID,24.3636,VALID,358,VALID,0.405859,
2012-02-20, 03:31:04,VALID,1003.46,VALID,0,VALID,94.2777,VALID,0.0815089,VALID,24.3636,VALID,358,VALID,0.394922,
2012-02-20, 03:32:04,VALID,1003.47,VALID,0,VALID,94.2853,VALID,0.0815089,VALID,24.3636,VALID,358,VALID,0.494922,
2012-02-20, 03:33:04,VALID,1003.39,VALID,0,VALID,94.2777,VALID,0.0815089,VALID,24.3228,VALID,358,VALID,0.414453,
2012-02-20, 03:34:04,VALID,1003.32,VALID,0,VALID,94.3158,VALID,0.0815089,VALID,24.3441,VALID,357,VALID,0.639844,
2012-02-20, 03:35:04,VALID,1003.26,VALID,0,VALID,94.3235,VALID,0,VALID,24.3228,VALID,357,VALID,0.494922,
2012-02-20, 03:36:04,VALID,1003.21,VALID,0,VALID,94.3082,VALID,0.0815089,VALID,24.3228,VALID,358,VALID,0.146875,
2012-02-20, 03:37:04,VALID,1003.2,VALID,0,VALID,94.3387,VALID,0.0815089,VALID,24.3228,VALID,355,VALID,0.389453,
2012-02-20, 03:38:04,VALID,1003.26,VALID,0,VALID,94.3387,VALID,0.0815089,VALID,24.3422,VALID,355,VALID,0.151562,
2012-02-20, 03:39:04,VALID,1003.31,VALID,0,VALID,94.3387,VALID,0,VALID,24.3654,VALID,355,VALID,0.0941406,
2012-02-20, 03:40:04,VALID,1003.4,VALID,0,VALID,94.3464,VALID,0,VALID,24.3849,VALID,355,VALID,0.310156,
2012-02-20, 03:41:04,VALID,1003.45,VALID,0,VALID,94.3998,VALID,0,VALID,24.4043,VALID,13,VALID,0.455859,
2012-02-20, 03:42:04,VALID,1003.49,VALID,0,VALID,94.415,VALID,0,VALID,24.4238,VALID,134,VALID,0.969141,
2012-02-20, 03:43:04,VALID,1003.51,VALID,0,VALID,94.4303,VALID,0,VALID,24.4433,VALID,138,VALID,0.567187,
2012-02-20, 03:44:04,VALID,1003.53,VALID,0,VALID,94.3845,VALID,0,VALID,24.4433,VALID,139,VALID,0.648438,
2012-02-20, 03:45:04,VALID,1003.55,VALID,0,VALID,94.3616,VALID,0,VALID,24.4841,VALID,139,VALID,0.780469,